Hourly Weather Tirana

Today, 23 September, Wednesday

Time Temperature Precipitation Wind Pressure Humidity
00:00 +22°C° 0.5 mm 4 mps 754 mmHg 75%
01:00 +22°C° 0 mm 4 mps 754 mmHg 76%
02:00 +21°C° 1.4 mm 4 mps 753 mmHg 77%
03:00 +21°C° 1.4 mm 4 mps 753 mmHg 78%
04:00 +21°C° 1.4 mm 5 mps 753 mmHg 79%
05:00 +21°C° 1 mm 5 mps 753 mmHg 78%
06:00 +22°C° 1 mm 5 mps 753 mmHg 77%
07:00 +22°C° 1 mm 5 mps 753 mmHg 76%
08:00 +25°C° 0.8 mm 5 mps 753 mmHg 70%
09:00 +27°C° 0.8 mm 6 mps 753 mmHg 64%
10:00 +28°C° 0.8 mm 6 mps 753 mmHg 58%
11:00 +29°C° 0.7 mm 7 mps 753 mmHg 56%
12:00 +29°C° 0.7 mm 9 mps 752 mmHg 54%
13:00 +31°C° 0.7 mm 10 mps 752 mmHg 51%
14:00 +29°C° 0.9 mm 10 mps 752 mmHg 53%
15:00 +28°C° 0.9 mm 9 mps 752 mmHg 55%
16:00 +28°C° 0.9 mm 9 mps 751 mmHg 58%
17:00 +26°C° 1.2 mm 8 mps 751 mmHg 62%
18:00 +24°C° 1.2 mm 7 mps 752 mmHg 67%
19:00 +23°C° 1.2 mm 6 mps 752 mmHg 72%
20:00 +23°C° 0.4 mm 6 mps 752 mmHg 73%
21:00 +23°C° 0.4 mm 5 mps 752 mmHg 74%
22:00 +22°C° 0.4 mm 5 mps 752 mmHg 75%
23:00 +22°C° 1 mm 4 mps 752 mmHg 76%

Tomorrow, 24 September, Thursday

Time Temperature Precipitation Wind Pressure Humidity
00:00 +21°C° 1 mm 4 mps 752 mmHg 78%
01:00 +21°C° 1 mm 4 mps 752 mmHg 79%
02:00 +21°C° 1.2 mm 4 mps 752 mmHg 80%
03:00 +21°C° 1.2 mm 4 mps 751 mmHg 81%
04:00 +21°C° 1.2 mm 4 mps 751 mmHg 81%
05:00 +21°C° 0.3 mm 3 mps 751 mmHg 80%
06:00 +22°C° 0.3 mm 3 mps 751 mmHg 78%
07:00 +22°C° 0.3 mm 3 mps 751 mmHg 76%
08:00 +25°C° 0 mm 3 mps 752 mmHg 69%
09:00 +26°C° 0 mm 2 mps 752 mmHg 63%
10:00 +28°C° 0 mm 2 mps 752 mmHg 56%
11:00 +28°C° 0.3 mm 3 mps 752 mmHg 56%
12:00 +28°C° 0.3 mm 3 mps 752 mmHg 56%
13:00 +28°C° 0.3 mm 3 mps 752 mmHg 56%
14:00 +28°C° 0.1 mm 3 mps 752 mmHg 56%
15:00 +27°C° 0.1 mm 2 mps 751 mmHg 57%
16:00 +27°C° 0.1 mm 1 mps 751 mmHg 57%
17:00 +26°C° 0 mm 1 mps 752 mmHg 63%
18:00 +24°C° 0 mm 1 mps 752 mmHg 69%
19:00 +23°C° 0 mm 1 mps 752 mmHg 74%
20:00 +23°C° 0 mm 1 mps 752 mmHg 74%
21:00 +23°C° 0 mm 1 mps 752 mmHg 75%
22:00 +21°C° 0 mm 2 mps 752 mmHg 75%
23:00 +21°C° 0 mm 2 mps 752 mmHg 75%

Day after tomorrow, 25 September, Friday

Time Temperature Precipitation Wind Pressure Humidity
00:00 +21°C° 0 mm 2 mps 752 mmHg 74%
01:00 +21°C° 0 mm 2 mps 752 mmHg 74%
02:00 +21°C° 0 mm 3 mps 751 mmHg 72%
03:00 +20°C° 0 mm 3 mps 751 mmHg 71%
04:00 +20°C° 0 mm 3 mps 751 mmHg 70%
05:00 +21°C° 0 mm 3 mps 751 mmHg 68%
06:00 +22°C° 0 mm 4 mps 750 mmHg 65%
07:00 +22°C° 0 mm 4 mps 750 mmHg 63%
08:00 +25°C° 0.1 mm 5 mps 750 mmHg 57%
09:00 +27°C° 0.1 mm 5 mps 750 mmHg 52%
10:00 +28°C° 0.1 mm 6 mps 750 mmHg 46%
11:00 +29°C° 0.1 mm 6 mps 749 mmHg 44%
12:00 +30°C° 0.1 mm 7 mps 748 mmHg 42%
13:00 +30°C° 0.1 mm 7 mps 748 mmHg 40%
14:00 +31°C° 0.1 mm 8 mps 747 mmHg 42%
15:00 +29°C° 0.1 mm 9 mps 747 mmHg 44%
16:00 +29°C° 0.1 mm 10 mps 746 mmHg 46%
17:00 +27°C° 0.2 mm 9 mps 746 mmHg 52%
18:00 +26°C° 0.2 mm 9 mps 746 mmHg 59%
19:00 +23°C° 0.2 mm 9 mps 746 mmHg 65%
20:00 +23°C° 0.3 mm 9 mps 745 mmHg 67%
21:00 +23°C° 0.3 mm 10 mps 745 mmHg 69%
22:00 +22°C° 0.3 mm 10 mps 744 mmHg 70%
23:00 +22°C° 0.6 mm 9 mps 744 mmHg 74%

26 September, Saturday

Time Temperature Precipitation Wind Pressure Humidity
00:00 +21°C° 0.6 mm 8 mps 743 mmHg 77%
01:00 +21°C° 0.6 mm 7 mps 742 mmHg 81%
02:00 +20°C° 1.8 mm 7 mps 742 mmHg 83%
03:00 +20°C° 1.8 mm 7 mps 741 mmHg 85%
04:00 +20°C° 1.8 mm 8 mps 741 mmHg 87%
05:00 +20°C° 0.9 mm 7 mps 741 mmHg 82%
06:00 +18°C° 0.9 mm 7 mps 741 mmHg 77%
07:00 +18°C° 0.9 mm 7 mps 741 mmHg 71%
08:00 +18°C° 0.3 mm 7 mps 741 mmHg 70%
09:00 +18°C° 0.3 mm 7 mps 741 mmHg 69%
10:00 +18°C° 0.3 mm 7 mps 741 mmHg 67%
11:00 +20°C° 0.2 mm 7 mps 741 mmHg 62%
12:00 +20°C° 0.2 mm 8 mps 741 mmHg 56%
13:00 +21°C° 0.2 mm 8 mps 740 mmHg 50%
14:00 +20°C° 1.4 mm 7 mps 740 mmHg 57%
15:00 +18°C° 1.4 mm 7 mps 740 mmHg 64%
16:00 +16°C° 1.4 mm 6 mps 740 mmHg 71%
17:00 +16°C° 1.1 mm 6 mps 740 mmHg 72%
18:00 +15°C° 1.1 mm 7 mps 741 mmHg 74%
19:00 +15°C° 1.1 mm 7 mps 741 mmHg 75%
20:00 +15°C° 1.4 mm 7 mps 742 mmHg 76%
21:00 +15°C° 1.4 mm 7 mps 742 mmHg 78%
22:00 +14°C° 1.4 mm 7 mps 742 mmHg 80%
23:00 +14°C° 1.4 mm 7 mps 743 mmHg 82%

27 September, Sunday

Time Temperature Precipitation Wind Pressure Humidity
00:00 +13°C° 1.4 mm 8 mps 743 mmHg 83%
01:00 +13°C° 1.4 mm 8 mps 743 mmHg 85%
02:00 +14°C° 1.5 mm 7 mps 743 mmHg 86%
03:00 +13°C° 1.5 mm 6 mps 744 mmHg 87%
04:00 +13°C° 1.5 mm 5 mps 744 mmHg 89%
05:00 +13°C° 1.5 mm 6 mps 744 mmHg 87%
06:00 +14°C° 1.5 mm 6 mps 745 mmHg 86%
07:00 +14°C° 1.5 mm 6 mps 745 mmHg 85%
08:00 +15°C° 1.4 mm 6 mps 746 mmHg 80%
09:00 +16°C° 1.4 mm 6 mps 746 mmHg 75%
10:00 +17°C° 1.4 mm 6 mps 747 mmHg 70%
11:00 +17°C° 0.8 mm 6 mps 747 mmHg 69%
12:00 +17°C° 0.8 mm 6 mps 748 mmHg 67%
13:00 +19°C° 0.8 mm 6 mps 748 mmHg 66%
14:00 +17°C° 1.3 mm 6 mps 748 mmHg 68%
15:00 +17°C° 1.3 mm 6 mps 748 mmHg 71%
16:00 +16°C° 1.3 mm 5 mps 749 mmHg 73%
17:00 +15°C° 1.1 mm 5 mps 749 mmHg 75%
18:00 +15°C° 1.1 mm 4 mps 750 mmHg 77%
19:00 +14°C° 1.1 mm 4 mps 750 mmHg 79%
20:00 +13°C° 0.2 mm 3 mps 751 mmHg 81%
21:00 +13°C° 0.2 mm 3 mps 751 mmHg 82%
22:00 +13°C° 0.2 mm 2 mps 752 mmHg 84%
23:00 +12°C° 0.1 mm 3 mps 752 mmHg 83%

28 September, Monday

Time Temperature Precipitation Wind Pressure Humidity
00:00 +12°C° 0.1 mm 3 mps 752 mmHg 82%
01:00 +12°C° 0.1 mm 3 mps 753 mmHg 81%
02:00 +12°C° 0.1 mm 4 mps 753 mmHg 80%
03:00 +12°C° 0.1 mm 4 mps 752 mmHg 79%
04:00 +12°C° 0.1 mm 4 mps 752 mmHg 78%
05:00 +13°C° 0.1 mm 4 mps 753 mmHg 76%
06:00 +13°C° 0.1 mm 4 mps 753 mmHg 74%
07:00 +14°C° 0.1 mm 4 mps 753 mmHg 73%
08:00 +17°C° 0 mm 4 mps 753 mmHg 64%
09:00 +19°C° 0 mm 4 mps 753 mmHg 55%
10:00 +21°C° 0 mm 4 mps 753 mmHg 46%
11:00 +21°C° 0.1 mm 5 mps 753 mmHg 46%
12:00 +22°C° 0.1 mm 5 mps 753 mmHg 46%
13:00 +22°C° 0.1 mm 5 mps 752 mmHg 46%
14:00 +21°C° 0.4 mm 5 mps 752 mmHg 52%
15:00 +20°C° 0.4 mm 5 mps 752 mmHg 59%
16:00 +19°C° 0.4 mm 5 mps 751 mmHg 66%
17:00 +19°C° 0.4 mm 5 mps 751 mmHg 69%
18:00 +17°C° 0.4 mm 5 mps 751 mmHg 71%
19:00 +16°C° 0.4 mm 6 mps 751 mmHg 74%
20:00 +16°C° 0.6 mm 6 mps 751 mmHg 75%
21:00 +16°C° 0.6 mm 6 mps 751 mmHg 76%
22:00 +16°C° 0.6 mm 6 mps 751 mmHg 77%
23:00 +16°C° 1.2 mm 6 mps 751 mmHg 78%
Show more